Home   Weather   Waterbury   Past weeks
Flag for USA

Past Weather in Waterbury, Connecticut, USA — Yesterday and Last 2 Weeks

Now
47 °F

Clear.


Feels Like: 43 °F
Forecast: 61 / 40 °F
Wind: 7 mph from North

Location: Oxford

Current Time: Oct 15, 2019 at 2:27:46 am

Latest Report: Oct 15, 2019 at 1:51 am


Visibility: 10 mi

Pressure: 30.12 "Hg

Humidity: 74%

Dew Point: 39 °F

Location of WaterburyLocation

Past Weather in Waterbury — Graph

°F

Waterbury Temperature Yesterday

Maximum temperature yesterday: 69 °F (at 2:51 pm)
Minimum temperature yesterday: 45 °F (at 5:57 am)
Average temperature yesterday: 56 °F

High & Low Weather Summary for the Past Weeks

 TemperatureHumidityPressure
High85 °F (Oct 2, 1:51 pm)100% (Oct 3, 6:51 pm)30.51 "Hg (Oct 3, 6:51 pm)
Low34 °F (Oct 5, 5:51 am)36% (Oct 5, 2:51 pm)29.80 "Hg (Oct 2, 2:51 pm)
Average56 °F78%30.16 "Hg
* Reported Sep 30 12:51 am — Oct 15 12:51 am, Waterbury. Weather by CustomWeather, © 2019

Note: Actual official high and low records may vary slightly from our data, if they occured in-between our weather recording intervals... More about our weather records

Advertising

Waterbury Weather History for the Previous 24 Hours

Scroll right to see more
 ConditionsComfort  
Time TempWeatherWind HumidityBarometerVisibility
12:51 am
Tue, Oct 15
49 °FClear.6 mph69%30.10 "Hg10 mi
11:51 pm
Mon, Oct 14
51 °FClear.9 mph69%30.08 "Hg10 mi
10:51 pm53 °FClear.12 mph69%30.07 "Hg10 mi
9:51 pm53 °FClear.10 mph69%30.05 "Hg10 mi
8:51 pm59 °FClear.5 mph56%30.02 "Hg10 mi
7:51 pm57 °FClear.No wind78%30.00 "Hg10 mi
6:51 pm60 °FClear.No wind72%29.97 "Hg10 mi
5:51 pm66 °FSunny.3 mph50%29.94 "Hg10 mi
4:51 pm69 °FSunny.6 mph42%29.93 "Hg10 mi
3:51 pm69 °FSunny.7 mph42%29.93 "Hg10 mi
2:51 pm69 °FPassing clouds.7 mph51%29.93 "Hg10 mi
1:51 pm67 °FPassing clouds.7 mph55%29.96 "Hg10 mi
12:51 pm66 °FPassing clouds.7 mph61%29.98 "Hg10 mi
11:51 am63 °FScattered clouds.7 mph68%30.01 "Hg10 mi
11:14 am61 °FPartly sunny.6 mph72%29.99 "Hg10 mi
10:51 am61 °FScattered clouds.6 mph70%30.03 "Hg10 mi
10:05 am57 °FPartly sunny.3 mph88%30.01 "Hg10 mi
9:51 am56 °FFog.No wind93%30.05 "Hg6 mi
8:51 am52 °FFog.No wind97%30.05 "Hg1 mi
8:36 am52 °FFog.No wind94%30.01 "Hg3 mi
7:51 am50 °FFog.No wind100%30.05 "Hg5 mi
6:51 am49 °FLow clouds.No wind97%30.03 "Hg10 mi
6:28 am48 °FLow clouds.No wind94%29.98 "Hg10 mi
5:57 am45 °FPassing clouds.No wind100%29.98 "Hg10 mi
4:51 am46 °FClear.5 mph96%30.01 "Hg10 mi
3:51 am47 °FClear.No wind97%30.02 "Hg10 mi
2:51 am49 °FPassing clouds.No wind93%30.03 "Hg10 mi
Weather by CustomWeather, © 2019

See weather overview